GFSCGP_925_rhum_180.txt.gz
RH
59 76 91 51 47 48 57 66 70 57 45 48 47 46 40 36 35 35 32 31 28 28 28 24 24 25 25 26 28 28 80 96 98 100 100 100 97 93 84 68 57 53 49 42
62 84 45 48 51 54 59 70 71 54 42 43 49 53 48 39 33 29 27 30 30 31 32 31 26 27 27 27 27 31 74 99 99 97 97 99 96 91 86 79 62 51 45 42
64 53 42 48 55 62 65 70 63 60 49 51 60 60 44 36 29 26 27 30 32 31 36 40 39 30 29 29 30 33 82 99 99 97 96 98 92 87 94 89 79 52 46 41
62 44 50 56 64 57 88 45 49 60 74 88 57 87 57 40 31 26 26 30 31 43 46 46 45 42 31 31 29 56 97 100 100 94 100 99 95 94 82 82 76 55 44 39
67 49 62 71 59 46 67 48 59 65 77 88 71 96 65 37 34 28 26 30 45 46 46 46 47 43 40 30 46 77 91 100 99 100 100 97 97 94 87 83 63 52 44 35
63 46 54 57 52 53 50 56 54 67 92 98 67 78 65 38 28 27 35 44 44 44 42 49 52 50 42 32 73 87 99 100 100 100 100 97 97 99 92 86 64 57 47 43
58 50 50 50 64 45 44 64 93 89 95 83 42 56 44 31 36 43 45 43 42 48 52 56 54 51 43 85 97 100 100 100 100 100 100 100 98 96 88 81 65 66 61 57
87 78 54 56 57 57 56 59 94 97 90 77 53 74 49 25 36 38 36 42 52 52 55 66 57 51 66 92 96 99 100 100 100 100 100 100 94 94 92 71 62 69 66 63
61 63 38 40 39 43 51 74 62 91 76 85 65 41 30 29 44 44 48 55 65 70 66 71 64 47 93 93 97 100 100 100 100 100 100 100 99 90 87 78 62 70 70 73
44 73 42 38 42 47 52 45 78 90 97 90 68 53 70 39 51 49 60 54 61 75 73 75 48 79 94 96 98 100 100 100 100 100 100 100 90 84 82 74 75 76 75 79
44 50 52 42 46 49 54 71 69 96 99 96 92 61 33 35 44 64 64 61 74 79 84 78 70 92 97 100 100 100 100 100 100 100 96 93 87 84 76 79 81 79 80 77
47 53 75 52 36 34 32 41 44 88 79 82 79 74 33 31 46 65 63 81 83 85 92 96 96 96 98 99 100 100 100 100 100 100 94 90 81 79 82 82 83 82 80 75
44 63 80 60 47 42 46 41 41 45 55 65 87 67 27 30 48 56 88 92 85 88 95 98 97 97 98 99 100 100 100 100 100 97 95 87 80 80 77 77 78 77 72 65
50 53 61 68 50 49 58 50 46 50 78 65 63 55 40 32 52 62 85 90 90 90 95 97 97 98 98 98 98 99 100 100 100 97 94 86 82 80 77 74 71 63 53 44
56 69 60 56 51 51 54 56 53 54 49 63 54 49 33 35 52 64 93 90 87 92 94 97 98 98 98 98 96 97 99 100 100 99 99 96 84 75 69 62 52 45 36 30
56 80 66 71 53 52 53 43 44 44 41 42 41 35 24 35 46 58 93 90 91 91 94 94 98 97 98 97 96 95 98 100 97 100 100 97 90 78 60 44 40 33 29 31
59 77 74 81 61 59 64 42 35 37 35 34 38 31 30 38 49 58 96 91 95 96 95 97 97 97 98 98 93 95 98 100 91 90 91 87 71 53 45 39 34 30 30 31
52 62 74 87 72 76 36 29 29 37 37 35 30 33 36 42 52 78 90 96 94 96 98 98 98 99 100 100 100 100 100 100 100 100 90 73 48 44 40 36 32 31 28 29
50 60 74 86 76 55 43 30 35 39 40 30 33 35 38 44 47 87 85 89 97 98 98 99 99 100 100 100 100 98 95 93 90 89 79 56 44 40 36 33 28 27 28 31
58 58 70 70 80 72 34 32 34 28 49 34 33 36 47 51 71 84 90 90 93 97 100 99 100 100 100 100 100 98 96 90 86 76 67 49 40 35 33 33 33 30 28 30
76 71 84 75 82 64 39 39 30 39 42 40 36 36 49 57 58 62 78 91 94 97 100 100 99 99 100 100 97 100 100 98 87 74 66 45 39 33 32 33 30 27 26 29
79 85 87 80 81 81 41 35 36 38 35 37 39 40 48 51 51 84 72 94 90 90 95 99 99 100 100 97 95 100 100 98 84 66 47 39 34 32 31 27 26 25 25 26
67 56 70 60 59 37 35 31 31 34 38 37 37 42 46 51 53 82 72 73 85 92 91 96 99 100 100 100 96 96 90 69 57 45 39 35 31 30 29 25 27 30 29 32
38 40 45 47 37 43 40 38 29 31 34 34 34 44 45 52 54 83 75 74 72 89 94 88 93 97 96 92 86 71 57 46 41 38 36 33 30 29 26 26 28 30 33 32
41 43 44 44 34 29 32 29 33 35 36 32 34 44 49 52 56 73 81 77 76 70 73 81 77 68 64 64 55 50 47 42 37 34 33 31 31 30 31 32 32 32 34 30
43 43 46 46 33 34 36 35 37 38 36 35 37 42 50 51 60 62 74 69 68 65 62 59 56 53 50 47 42 38 36 35 31 32 31 31 30 31 31 31 37 35 29 29

GFSCGP_925_rhum_186.txt.gz
RH
74 78 71 68 60 56 62 73 81 64 55 67 67 60 50 44 47 51 53 54 48 42 39 31 34 34 33 28 29 30 30 39 73 100 97 100 100 100 95 92 97 92 86 87
69 74 58 61 55 60 66 76 84 68 58 56 58 66 50 50 51 48 46 44 42 36 33 46 43 40 38 37 36 35 41 54 87 88 93 85 98 100 96 90 90 89 89 78
70 46 54 55 57 65 71 77 79 73 66 63 67 76 58 43 45 39 37 40 43 40 45 47 47 42 38 35 30 33 34 58 89 84 85 99 100 100 100 95 84 81 81 85
73 59 52 56 68 71 91 63 68 74 81 94 69 94 74 58 55 40 42 52 48 52 52 52 53 48 43 42 40 34 38 53 88 99 88 98 98 97 99 99 95 81 79 77
35 60 65 71 64 62 64 59 73 75 92 94 82 94 76 60 39 40 43 48 49 52 55 56 57 46 43 44 48 48 45 66 98 100 98 100 99 98 100 96 95 86 67 60
77 61 60 61 58 61 59 66 64 90 93 97 77 76 62 46 35 42 46 48 48 51 48 44 42 44 45 49 58 54 58 79 97 100 100 98 96 98 100 100 88 76 67 55
64 66 62 55 66 52 59 72 83 75 84 74 58 74 56 42 38 47 48 50 51 56 54 49 60 64 63 64 70 71 70 81 98 100 96 95 100 99 99 99 100 98 91 86
86 49 65 59 55 51 60 66 83 71 88 66 59 89 62 45 35 47 49 54 57 54 55 63 70 71 71 70 77 76 84 94 96 95 95 97 100 100 98 96 93 89 80 66
73 68 48 63 55 52 60 80 60 83 81 95 80 64 39 35 40 50 52 64 62 63 71 76 71 79 91 95 89 89 92 90 95 97 97 100 100 98 97 93 91 87 78 62
50 72 49 46 48 48 51 53 72 90 99 95 82 73 63 49 45 48 64 72 72 74 74 76 76 86 86 85 84 83 89 94 98 98 99 99 100 97 96 89 86 85 81 64
51 64 59 48 56 60 68 70 80 83 95 97 98 66 50 40 35 55 66 67 78 82 77 79 86 90 97 90 95 97 96 99 99 100 100 100 100 100 100 94 84 78 76 63
53 69 89 68 47 46 54 65 75 91 75 97 88 68 31 35 40 53 63 71 81 80 78 87 96 94 88 92 94 98 100 99 100 100 100 100 100 100 100 98 94 82 77 81
51 70 87 60 40 42 48 46 49 61 75 76 86 62 36 34 36 46 61 79 82 79 80 90 95 95 99 100 99 98 100 100 100 100 100 100 100 100 100 99 96 89 85 80
54 71 62 72 56 48 64 59 57 63 84 74 69 58 45 41 42 49 68 83 88 84 87 95 80 90 93 94 98 100 100 100 100 100 100 100 100 100 100 99 90 91 85 78
62 82 80 72 70 72 72 74 69 75 68 80 58 52 43 42 46 51 76 90 85 84 88 93 98 98 99 100 100 99 100 100 100 100 100 100 100 100 99 97 91 82 77 73
66 94 88 93 76 76 79 66 59 55 53 54 54 59 42 38 43 56 88 90 88 85 87 93 98 97 98 98 99 100 100 100 100 100 100 100 100 98 93 87 75 74 64 52
75 100 99 87 69 76 73 48 50 52 52 53 56 37 42 42 50 62 94 92 90 87 88 94 98 97 99 100 99 99 100 100 100 99 100 98 97 97 96 83 74 55 46 39
69 72 95 93 73 84 48 42 41 47 41 43 43 41 40 44 54 89 88 96 96 91 92 96 98 99 100 100 100 100 100 100 100 100 95 90 85 79 70 68 60 48 44 44
64 70 94 92 93 60 55 43 40 39 42 34 38 42 44 49 81 92 82 92 96 96 95 98 100 100 100 100 100 100 100 99 100 100 98 87 74 63 56 56 52 50 47 48
75 66 78 95 96 93 50 36 32 31 46 30 39 43 48 56 61 61 80 93 92 94 100 100 100 100 100 100 100 99 100 100 100 100 100 91 77 57 48 48 51 50 40 33
79 89 94 93 94 86 55 47 33 49 44 36 37 41 49 57 60 59 86 90 91 99 100 100 100 100 100 100 98 100 100 100 100 98 98 93 79 46 43 44 43 37 33 34
65 86 96 90 97 86 45 42 48 38 37 36 37 41 50 56 58 82 91 91 91 98 99 100 99 100 100 100 96 100 100 100 99 98 97 92 76 47 41 41 46 40 32 33
74 54 77 80 74 49 46 42 36 38 39 37 37 38 48 55 60 80 84 93 91 96 100 100 99 100 100 100 94 100 100 99 95 81 66 62 44 40 39 37 39 35 33 34
56 54 58 58 47 48 43 42 48 40 38 36 37 42 48 55 70 80 86 97 92 94 99 100 100 99 100 100 98 96 98 92 82 69 55 41 37 36 32 30 29 28 28 34
64 64 65 61 50 48 41 44 40 44 40 40 35 42 49 57 68 84 84 89 94 95 99 98 98 97 99 100 99 97 94 87 79 53 43 39 35 31 30 28 26 22 23 22
80 76 73 66 49 47 39 37 37 41 40 37 38 46 52 58 65 83 83 81 91 96 95 94 95 92 92 97 97 96 90 82 66 48 40 37 33 30 29 30 35 32 29 29

GFSCGP_925_rhum_189.txt.gz
RH
76 70 62 57 58 52 59 71 78 70 56 66 68 66 52 46 50 55 53 51 49 46 41 47 43 40 38 37 36 35 34 36 42 71 93 99 100 92 88 97 96 89 88 91
64 56 50 60 56 61 67 74 78 66 60 58 62 68 55 52 53 48 48 48 48 47 44 48 42 38 35 34 32 32 32 37 57 73 71 89 100 98 86 100 100 93 87 93
64 42 57 58 59 64 69 72 71 64 71 66 73 64 58 48 46 43 40 44 51 53 50 49 47 40 34 33 29 30 30 34 45 52 98 100 100 99 100 100 100 98 92 96
71 61 56 58 66 71 85 64 69 77 85 90 67 82 73 54 58 44 37 54 49 48 48 50 50 44 40 40 38 38 39 37 48 50 98 100 98 98 99 94 98 100 98 91
29 60 63 70 63 64 56 61 75 77 95 97 81 94 74 56 43 34 36 51 48 49 52 54 49 41 41 43 45 46 49 47 50 83 86 100 98 94 97 100 98 98 95 82
75 66 63 60 58 61 63 63 61 86 93 92 71 77 57 46 36 35 43 49 50 50 49 47 45 50 52 61 65 63 57 58 61 86 92 99 99 96 100 100 96 88 88 90
60 63 65 57 66 55 56 67 82 74 79 70 73 79 54 40 38 38 40 49 52 56 59 54 64 68 69 72 76 80 76 75 74 82 94 95 98 99 99 98 99 83 82 82
77 43 63 62 58 50 59 61 83 69 82 73 59 85 58 46 44 42 49 55 60 63 53 62 70 73 76 82 89 93 86 82 82 90 96 93 94 100 100 96 100 88 72 66
78 65 47 64 56 51 62 82 58 82 75 93 81 67 45 37 36 45 50 52 54 60 65 73 72 76 83 90 83 87 94 90 86 98 98 92 97 91 97 99 96 92 82 68
50 65 48 48 53 53 55 58 76 90 99 95 81 77 62 49 43 46 54 49 55 68 72 78 77 85 91 91 93 87 95 97 95 99 98 100 97 99 100 100 99 94 89 84
53 61 56 52 56 58 70 73 82 83 87 99 99 59 52 45 43 49 48 52 64 70 79 79 79 89 90 95 96 95 94 98 100 98 99 100 100 100 100 99 96 89 86 74
53 73 87 64 47 50 52 63 77 89 85 95 94 68 31 33 41 45 42 46 68 73 80 80 91 88 94 92 90 95 100 100 100 99 100 100 100 100 96 93 93 90 76 72
52 64 83 67 45 43 54 57 60 66 79 74 93 59 37 34 32 36 51 50 75 80 83 83 90 87 91 92 99 99 96 99 100 100 99 100 100 100 96 92 96 92 84 76
56 68 67 81 59 46 56 53 56 66 90 73 67 55 43 38 39 40 46 60 83 85 86 87 94 96 97 96 94 96 100 99 100 100 100 100 100 100 100 98 97 93 91 91
70 87 81 74 71 74 77 78 73 80 74 84 62 61 49 42 42 46 50 73 91 82 88 80 94 97 97 99 100 99 100 100 100 100 100 100 100 100 100 100 91 88 87 83
91 99 99 94 83 83 81 73 73 73 70 68 66 67 44 39 47 47 56 89 91 87 82 84 88 95 96 98 100 100 100 100 100 100 100 100 100 100 100 100 95 87 88 85
89 97 96 87 76 81 79 69 62 54 54 54 60 37 41 41 48 50 88 87 91 92 88 88 92 96 98 97 99 100 100 100 100 100 100 100 100 100 99 96 90 80 79 69
82 86 90 89 79 78 48 47 51 56 48 48 48 42 44 47 54 67 85 89 92 92 91 91 94 99 100 100 100 100 100 100 100 100 100 100 100 100 95 89 80 67 54 44
75 73 91 97 88 54 54 44 40 43 48 37 41 42 46 49 60 61 77 83 94 94 94 97 100 100 100 100 100 99 100 99 100 100 100 100 97 98 92 80 70 55 45 45
76 75 76 97 95 93 52 37 34 36 48 35 42 43 47 58 56 57 75 91 91 95 100 100 100 100 100 100 100 98 100 100 100 100 100 98 96 95 85 72 60 56 48 51
90 98 93 88 92 76 59 50 37 60 50 38 37 44 50 57 54 56 79 89 90 99 100 100 100 100 100 100 91 100 100 100 100 99 94 91 89 87 74 60 51 48 48 51
62 85 92 88 98 84 47 45 56 47 39 37 39 41 50 56 60 70 81 91 93 98 98 100 99 100 100 99 92 100 100 100 100 96 93 80 78 67 63 53 58 57 46 45
67 49 65 80 68 52 46 49 44 43 44 44 39 42 45 59 56 71 81 94 92 98 100 100 100 100 100 100 86 99 100 100 100 100 88 63 50 52 52 56 52 46 41 44
64 57 60 57 45 45 38 34 44 43 46 43 45 44 47 56 57 74 82 96 92 97 99 99 99 100 100 100 100 95 99 99 96 97 88 73 50 50 49 46 43 36 35 43
70 69 70 70 61 55 49 44 42 41 40 51 45 40 50 55 58 74 83 90 94 97 99 97 98 99 100 100 100 100 97 90 83 82 65 54 50 46 46 42 35 29 29 26
65 69 81 72 49 54 48 49 45 44 46 48 48 45 54 56 60 73 85 82 95 97 98 96 94 98 100 100 100 98 96 86 61 49 46 43 42 42 42 39 36 30 25 26

GFSCGP_925_rhum_192.txt.gz
RH
77 57 53 50 54 51 57 68 74 71 59 64 65 66 54 46 55 53 49 50 50 50 41 48 40 34 28 26 26 26 28 29 32 53 100 100 98 100 99 89 87 95 100 97
55 46 47 59 59 62 68 72 72 62 61 66 69 72 51 56 51 45 46 48 51 53 45 43 34 30 30 30 28 27 27 28 35 42 68 89 97 98 100 99 94 100 100 95
51 46 63 58 61 64 67 67 61 64 72 65 78 56 43 42 47 45 44 43 51 54 48 44 43 37 34 34 34 38 38 32 36 39 59 89 94 98 100 100 97 99 100 99
64 60 60 61 64 68 76 63 66 77 84 85 66 74 60 51 52 43 38 53 55 51 50 49 49 45 40 42 47 49 46 45 47 45 56 78 87 92 98 100 99 96 98 99
26 63 65 68 59 62 50 63 75 80 96 99 78 96 66 50 34 28 29 40 54 51 52 52 53 43 45 49 57 58 56 62 59 52 68 85 86 98 96 100 100 98 100 99
66 69 64 56 58 63 62 58 63 82 92 87 66 79 59 42 32 31 36 42 47 52 52 52 44 49 55 63 68 74 77 78 77 70 69 80 88 93 99 100 99 98 100 99
55 59 67 60 63 59 56 64 77 71 76 67 75 82 57 37 36 38 37 41 45 55 53 52 53 63 69 74 76 83 84 83 86 82 71 76 89 91 97 100 100 99 100 100
65 39 64 64 57 52 68 60 81 74 82 74 66 85 55 46 43 46 48 50 57 50 52 55 62 73 75 79 83 94 91 82 96 90 80 82 90 94 100 100 97 96 97 92
69 48 49 64 58 49 69 81 58 79 75 95 82 67 46 39 38 39 44 46 52 50 54 62 73 76 76 88 93 98 96 91 94 91 86 96 98 94 99 100 95 93 93 93
48 52 47 51 56 59 55 60 79 91 98 99 83 74 62 46 42 46 48 53 48 56 65 74 79 76 83 92 95 94 94 97 96 93 94 94 97 100 99 100 95 88 85 84
56 58 54 52 56 52 70 75 84 82 85 99 99 71 56 48 45 47 50 47 46 63 62 78 80 78 91 90 87 89 93 96 100 100 99 99 99 100 100 93 97 92 83 76
56 73 83 60 49 49 57 68 80 90 88 94 94 67 34 36 44 38 38 39 54 67 73 80 83 88 90 90 89 93 97 100 100 100 100 100 99 100 100 100 98 93 89 77
56 68 87 63 51 50 58 67 68 74 79 88 89 61 35 32 39 36 40 45 51 69 85 76 87 90 93 95 97 94 97 99 100 100 99 100 100 100 100 97 94 94 95 92
60 73 73 80 51 48 57 56 56 63 84 72 71 64 50 40 39 42 44 52 58 89 86 80 71 83 93 95 99 99 99 98 100 100 100 100 100 99 100 98 99 100 98 92
74 86 80 74 72 69 69 69 69 78 74 92 64 65 51 47 47 47 49 56 81 86 80 80 80 81 95 97 99 100 99 100 100 100 100 100 100 100 100 100 100 98 92 89
94 96 96 93 79 84 87 80 76 75 73 75 72 76 52 47 48 47 51 69 82 78 84 84 82 86 95 95 99 100 99 99 100 100 100 100 100 100 100 100 99 89 89 89
84 95 96 90 79 79 79 63 58 65 69 71 72 45 41 44 47 48 55 81 82 86 89 88 88 96 95 98 100 100 100 100 100 99 100 100 100 100 100 95 92 96 96 93
84 94 93 94 79 96 46 45 50 57 54 54 54 49 48 50 52 61 82 88 90 93 93 92 93 98 100 100 100 100 99 100 100 100 100 100 100 100 96 94 93 84 84 77
85 77 92 95 93 62 54 42 51 53 51 44 41 44 46 47 60 49 70 87 93 94 96 97 100 100 100 100 100 99 100 100 100 100 100 100 100 100 98 97 96 88 68 62
91 85 80 97 99 90 57 40 36 38 52 37 41 43 47 57 51 48 63 88 90 96 98 99 100 100 100 100 100 99 100 100 100 100 100 100 100 97 95 91 87 84 63 68
98 96 91 82 85 77 54 42 40 65 58 40 40 44 45 53 52 48 67 88 90 97 99 99 100 100 100 100 97 100 100 100 100 100 100 98 96 94 88 80 65 53 66 65
54 85 93 78 90 82 46 51 62 53 48 44 42 47 48 51 56 60 78 90 93 97 99 99 100 100 100 100 94 100 100 100 99 99 99 100 96 90 78 75 78 74 61 72
60 49 66 80 70 50 52 48 47 49 55 49 53 46 53 51 56 56 80 93 93 99 100 99 100 100 100 100 92 100 100 99 97 91 86 76 78 74 71 67 74 70 63 80
68 58 64 55 41 35 29 26 33 44 52 46 49 52 53 52 54 60 79 93 94 98 99 99 99 100 100 100 99 97 100 99 92 88 82 74 66 66 64 57 51 46 51 58
35 68 81 77 67 60 54 49 49 47 50 53 50 52 53 52 57 61 79 89 94 98 99 96 97 99 100 100 100 100 100 99 89 78 61 65 63 69 59 53 45 38 36 27
60 60 66 62 43 59 50 47 47 54 52 46 54 50 50 54 61 61 80 84 95 99 99 96 97 99 100 100 100 99 96 97 90 74 56 52 51 48 46 44 43 34 28 27

GFSCGP_925_rhum_195.txt.gz
RH
72 50 48 48 49 46 56 62 65 64 57 63 66 63 50 42 50 45 40 41 41 46 39 45 42 34 30 26 25 25 28 30 30 30 31 46 78 86 98 100 99 96 94 91
48 41 46 63 63 65 66 68 67 57 58 66 72 64 46 46 45 41 41 41 42 49 46 43 35 33 32 30 28 32 35 41 44 43 42 40 52 82 97 99 98 100 99 100
37 46 66 58 64 65 66 62 56 58 69 65 72 48 36 35 45 44 45 44 45 52 50 47 44 37 33 33 35 44 47 54 56 50 47 67 86 89 93 96 95 98 100 100
55 63 64 63 62 64 67 61 62 76 75 68 67 50 48 44 43 37 34 37 51 53 47 48 46 40 39 39 49 55 58 62 64 62 59 80 89 90 87 92 93 98 96 94
30 71 69 67 56 59 48 66 78 81 94 96 75 87 44 43 28 22 26 31 37 48 50 48 46 43 43 50 61 66 70 75 76 79 78 78 90 85 71 88 97 100 100 91
56 68 64 51 61 62 63 65 62 76 87 76 63 66 41 34 28 27 30 33 37 39 44 48 41 44 51 63 71 74 77 79 77 75 79 82 82 87 93 97 100 100 100 99
53 62 70 61 63 59 54 51 65 60 73 53 76 72 40 35 33 35 36 37 38 44 50 42 45 52 60 73 76 80 87 90 88 86 80 84 86 90 87 86 96 100 99 100
53 44 70 66 56 53 69 49 70 48 68 62 70 78 41 43 41 42 45 47 49 46 44 45 49 59 71 78 82 90 93 99 93 98 94 93 89 93 88 82 95 99 100 100
57 44 54 65 59 50 67 75 57 76 73 94 78 62 42 36 35 36 38 44 42 43 41 46 54 67 76 81 89 93 93 100 90 98 97 96 93 87 89 84 96 100 100 100
48 46 50 56 57 60 56 61 75 85 85 96 79 72 52 39 38 42 46 44 42 45 46 54 58 73 79 86 89 84 88 85 85 96 96 94 95 96 93 100 99 100 99 95
55 53 51 53 63 64 72 75 85 78 81 97 98 71 49 44 42 50 42 40 46 48 53 59 72 78 82 93 89 89 93 92 94 98 96 99 99 98 100 99 100 98 97 95
58 69 75 54 52 50 55 68 75 84 85 88 90 71 35 37 42 39 40 38 48 55 57 71 79 82 78 90 94 98 100 92 96 99 97 99 100 100 100 100 95 92 91 92
58 74 83 61 56 53 59 67 69 71 77 86 95 57 36 34 39 36 40 45 49 49 74 72 75 75 71 84 95 97 94 100 100 99 99 100 100 99 100 100 96 89 88 89
61 72 64 64 52 49 57 59 68 64 89 62 64 55 46 45 43 41 44 50 48 57 76 75 78 78 76 84 97 97 96 90 100 100 99 100 96 100 100 99 99 96 91 86
68 80 79 75 72 75 71 67 64 64 61 74 63 69 57 48 47 48 48 54 57 72 74 80 84 86 84 92 95 97 99 99 95 100 100 100 100 99 100 100 100 100 92 80
87 95 91 87 81 85 86 81 79 74 72 77 74 76 52 48 51 43 48 58 73 80 84 85 87 85 90 95 95 98 100 100 100 100 100 100 100 99 100 100 100 100 98 91
83 94 93 94 80 76 78 62 62 62 71 72 82 60 47 44 45 43 51 68 81 87 90 90 92 92 97 99 100 100 100 100 100 100 100 100 100 100 100 100 100 100 95 88
78 97 92 96 81 94 46 45 50 57 58 66 62 54 49 48 48 50 62 82 88 91 95 95 94 98 99 99 99 100 99 99 100 100 100 100 100 100 100 100 100 96 91 82
83 86 92 92 97 73 49 38 53 55 49 49 57 46 46 49 56 51 75 69 90 92 95 96 99 100 99 99 99 100 100 100 100 100 100 100 100 99 98 98 98 94 93 86
89 71 73 97 99 93 56 44 39 41 52 44 40 49 53 54 54 44 52 65 89 92 96 98 99 99 100 100 99 100 100 100 100 100 100 100 99 100 99 95 91 86 86 89
90 95 90 86 83 79 52 43 40 68 52 41 43 52 51 54 53 44 50 69 88 96 97 99 100 100 100 100 96 100 100 100 100 100 100 100 100 100 100 98 93 87 86 86
91 97 91 93 96 87 46 54 61 53 48 48 49 50 56 57 54 53 57 79 92 96 98 99 99 100 99 98 96 100 100 100 100 100 100 100 98 99 98 92 83 78 80 83
58 50 68 79 70 48 56 52 43 47 49 54 52 52 56 60 53 56 62 82 91 97 98 99 99 100 100 98 96 100 100 99 97 98 98 95 89 90 92 93 90 84 74 85
68 58 72 64 49 45 45 42 44 47 54 52 53 56 55 56 53 58 64 79 92 97 97 97 99 100 100 100 100 100 99 94 89 88 90 89 85 84 75 65 72 70 80 89
38 38 41 42 35 56 42 48 50 48 50 56 54 56 54 58 54 59 65 79 92 98 97 95 96 99 100 100 100 100 96 91 89 87 78 77 76 69 70 66 61 51 47 40
51 47 50 45 32 37 31 27 39 52 50 49 46 42 45 58 60 60 68 76 90 99 98 96 96 99 100 100 99 100 98 90 86 79 75 68 64 60 55 51 51 47 40 38

GFSCGP_925_rhum_198.txt.gz
RH
52 38 41 26 33 30 34 32 32 32 42 44 39 38 26 21 27 26 20 22 23 30 32 39 39 37 34 32 34 34 40 39 45 47 49 47 52 64 87 100 98 91 99 100
36 35 35 46 46 42 39 39 34 32 42 47 38 36 23 24 25 24 23 23 23 32 32 34 34 34 34 35 36 38 41 47 49 55 57 60 53 53 67 90 97 98 99 100
29 36 50 47 53 44 42 34 34 39 48 50 45 21 23 24 27 27 26 28 26 33 32 31 32 34 35 31 36 44 55 59 60 63 65 68 71 74 74 87 95 95 98 99
36 54 56 53 48 44 50 42 48 58 56 42 46 27 17 25 20 21 21 23 23 30 32 32 32 30 29 33 46 55 61 65 68 69 70 68 67 69 67 69 85 97 96 98
46 58 56 53 42 45 43 55 63 63 72 82 55 65 16 26 18 18 21 22 22 23 26 28 29 30 32 40 53 62 68 72 76 78 80 76 74 69 68 64 74 93 100 98
51 60 52 42 54 50 55 53 49 74 79 75 47 43 16 17 18 20 20 20 22 24 23 24 28 28 31 39 58 67 73 77 80 81 80 78 77 82 76 71 71 91 99 100
52 57 60 55 53 55 50 40 66 61 73 38 50 46 19 19 20 23 26 23 23 25 26 27 29 32 37 48 62 70 72 75 77 83 89 86 86 81 80 74 71 85 99 100
51 56 66 57 47 36 47 37 50 40 36 26 49 43 23 28 28 26 28 27 26 28 28 30 31 37 46 57 65 73 76 76 73 75 87 85 93 96 90 80 76 79 89 100
37 44 53 60 52 46 53 54 45 62 57 63 37 36 27 29 29 24 26 29 29 29 31 31 33 48 56 61 68 76 82 78 80 69 88 92 88 94 95 88 79 84 86 99
34 45 47 57 51 51 47 43 61 59 62 56 35 39 33 26 28 30 31 30 30 30 33 32 37 60 64 67 73 80 82 85 83 89 92 92 96 92 92 90 85 81 88 96
40 37 51 53 60 49 57 54 60 55 60 71 56 30 28 31 32 35 30 30 32 34 34 40 49 65 66 66 70 78 83 86 86 84 91 97 99 99 95 89 86 82 89 96
52 47 50 41 46 44 45 43 40 55 67 75 72 51 25 30 28 29 32 30 32 33 40 52 60 66 70 66 65 75 86 92 90 88 99 99 96 100 97 96 98 99 97 94
50 55 61 52 47 49 51 52 48 49 54 58 65 38 28 24 28 30 31 33 33 36 48 57 62 73 76 78 78 86 89 93 94 97 100 96 99 100 100 100 99 99 94 91
56 54 48 41 44 44 52 54 55 52 59 49 47 41 32 30 35 33 32 35 35 38 57 68 76 78 78 82 91 89 87 92 95 100 100 96 100 100 100 100 100 95 97 94
59 64 62 54 55 59 55 52 49 54 51 57 47 44 37 37 36 34 35 35 40 40 62 77 83 83 82 90 92 86 90 96 100 100 100 99 100 100 100 100 100 99 93 89
74 84 78 84 61 60 64 56 53 53 51 50 50 52 36 31 28 29 32 37 44 43 72 82 86 87 89 96 95 94 96 99 100 100 100 100 100 100 100 100 100 99 90 83
60 78 84 68 64 64 66 50 50 46 42 48 58 40 36 30 33 35 37 40 47 48 82 88 90 90 98 99 100 99 100 99 100 100 100 100 100 100 100 100 100 97 96 91
58 67 74 85 63 78 35 34 40 45 40 39 45 41 38 33 40 38 36 44 48 48 86 90 90 97 100 100 99 100 100 99 100 100 100 100 100 99 100 99 98 98 92 83
55 57 74 76 63 45 41 27 36 42 36 32 38 37 35 37 36 30 33 40 46 59 88 93 97 100 100 99 96 99 100 100 99 100 100 100 100 100 100 98 92 89 88 89
63 58 65 64 79 61 33 41 35 38 47 39 34 30 39 40 36 30 38 41 44 73 93 95 99 100 100 100 99 99 100 100 100 100 100 100 99 100 100 99 96 92 88 89
83 82 77 65 67 44 32 31 35 47 44 41 33 33 42 40 35 35 38 41 48 84 95 94 99 100 99 99 98 100 100 100 100 100 100 100 100 99 99 98 99 96 92 95
54 69 71 67 76 79 31 44 46 42 33 31 31 36 45 40 39 35 38 43 53 84 95 95 99 100 100 97 98 100 100 100 100 100 100 100 100 100 99 96 97 98 98 91
49 36 35 47 39 38 47 41 34 34 36 33 30 32 41 44 39 34 40 43 45 85 95 95 98 100 100 98 99 100 100 99 100 99 99 100 100 100 93 88 86 85 82 83
47 50 54 40 26 26 27 25 25 24 25 24 33 41 42 40 35 36 41 44 47 81 95 92 98 99 100 99 98 99 96 94 96 95 97 99 99 96 80 74 74 72 73 76
26 26 28 28 24 22 21 21 22 21 25 34 28 28 40 35 35 38 46 44 48 79 97 92 94 97 100 100 99 97 93 90 91 89 90 92 90 80 74 72 70 68 69 67
33 32 34 32 19 18 17 16 16 20 23 25 30 34 32 34 40 45 47 44 52 80 98 94 93 98 100 100 100 96 94 91 90 86 78 72 69 66 64 62 67 60 48 45

GFSCGP_925_rhum_201.txt.gz
RH
37 38 45 22 20 19 18 16 16 17 31 34 23 22 17 14 18 20 15 15 17 23 26 32 34 33 31 31 33 32 33 32 38 41 40 39 39 41 56 80 76 66 72 78
32 31 21 30 29 26 24 24 24 23 32 34 24 25 18 17 18 16 15 16 18 22 24 28 32 30 31 32 31 32 34 41 47 52 51 52 50 49 44 56 83 82 76 84
28 32 35 33 36 30 27 24 20 29 33 32 35 17 20 20 20 20 20 20 20 23 24 25 25 26 29 30 32 33 40 48 54 56 59 61 61 62 62 60 71 87 90 95
27 37 40 37 38 31 43 29 34 41 43 42 32 24 13 18 18 17 19 18 19 20 19 20 22 23 25 29 32 38 47 54 60 62 65 65 66 63 59 61 63 73 87 96
44 50 49 44 35 30 38 41 46 48 60 64 39 54 15 18 18 19 18 20 19 18 19 20 22 23 26 28 34 40 50 59 64 69 73 73 72 69 66 62 61 62 79 88
43 50 40 34 41 37 44 41 43 66 71 79 34 33 14 17 13 18 18 17 18 20 22 22 23 25 26 31 39 46 55 61 66 70 71 72 75 78 74 72 69 65 72 85
45 46 46 44 47 48 48 35 70 78 85 43 33 36 15 17 16 19 21 22 21 23 23 24 27 28 30 45 52 55 56 62 65 64 66 75 81 79 79 78 74 72 71 86
58 63 52 45 42 35 40 33 61 47 38 29 36 36 23 19 21 22 21 23 23 25 24 27 28 31 36 53 56 58 62 68 70 67 68 67 73 78 84 84 84 78 73 80
36 43 52 51 44 40 44 46 38 51 35 44 26 27 22 22 25 23 24 25 26 27 28 28 29 38 45 58 59 63 68 72 75 74 74 76 78 82 83 83 89 86 77 81
29 41 46 54 46 45 44 33 49 47 65 49 24 27 30 28 26 28 26 27 27 28 28 29 40 50 56 61 65 64 69 79 81 79 82 79 76 80 82 85 88 88 81 83
35 32 47 50 51 39 49 42 42 46 50 68 40 24 23 24 29 27 26 28 28 30 29 34 47 53 60 70 73 72 71 85 87 84 87 85 84 84 92 93 87 89 86 87
44 43 41 40 40 38 35 34 34 48 58 56 69 43 20 24 25 24 27 28 28 29 30 36 52 60 71 76 79 80 86 90 87 89 90 92 90 96 96 100 90 86 89 86
46 43 51 43 43 43 46 37 38 32 38 55 63 34 21 22 24 24 29 29 29 29 31 37 58 62 76 77 81 91 86 82 84 88 89 99 93 100 99 100 96 96 94 94
55 46 42 40 44 42 47 43 44 43 56 46 39 32 24 23 28 29 29 28 28 30 32 40 65 65 80 84 92 92 87 84 91 98 97 100 99 100 100 100 100 100 99 99
55 61 52 47 45 45 50 45 42 49 50 55 41 37 30 28 31 29 26 29 31 33 35 45 72 76 82 93 94 93 90 91 99 100 99 100 99 100 100 100 99 100 99 96
64 68 64 78 57 52 58 49 46 46 43 42 39 40 28 28 25 28 30 33 37 36 37 47 74 80 88 96 96 95 93 99 100 100 100 100 100 100 100 99 100 99 99 97
64 72 80 72 49 56 61 46 46 43 39 39 46 33 31 33 32 33 36 38 39 41 39 59 82 86 96 98 99 97 99 100 100 100 100 100 100 100 100 100 100 100 97 97
87 68 84 75 63 74 35 29 32 36 32 30 32 31 34 34 33 33 33 38 42 39 40 77 86 93 99 99 100 98 99 100 100 100 100 100 100 100 100 99 99 96 97 91
56 72 91 86 66 43 37 30 32 34 33 30 29 34 28 31 30 30 29 34 40 40 58 86 91 99 99 100 100 99 99 100 99 100 100 100 100 100 96 98 98 92 80 79
47 49 72 70 75 59 35 39 31 34 45 32 30 31 32 35 36 29 34 31 35 40 66 91 95 98 99 99 99 99 100 100 100 100 100 100 100 100 98 98 97 91 89 84
74 65 74 66 66 43 25 24 27 52 52 38 30 30 31 38 34 34 32 30 31 39 72 93 96 98 99 99 99 100 100 100 100 100 100 100 99 99 100 98 100 98 99 99
45 55 57 60 64 72 26 38 37 40 33 31 29 27 26 34 31 27 29 30 34 39 66 92 95 99 99 99 98 100 100 100 99 100 100 100 100 100 100 98 100 100 100 100
40 33 34 34 36 38 40 36 30 29 28 26 25 26 34 33 28 26 30 31 35 38 65 93 94 99 100 99 97 99 100 99 99 100 100 100 100 100 100 99 100 100 99 86
29 27 46 36 26 25 23 24 24 21 22 20 24 21 18 20 28 28 32 36 40 40 59 93 95 97 100 100 98 96 95 96 96 99 100 100 100 100 99 99 96 76 74 78
31 24 29 31 27 26 23 19 18 18 17 14 15 16 20 26 30 27 35 39 42 41 60 95 92 95 99 100 99 93 93 95 94 97 100 100 100 71 67 67 65 64 64 64
31 35 36 35 21 19 18 14 13 14 16 16 17 19 20 25 29 31 36 40 44 42 63 97 94 95 99 100 100 96 93 94 92 95 92 80 69 65 68 73 73 70 68 63

GFSCGP_925_rhum_204.txt.gz
RH
40 53 67 47 34 31 21 22 18 26 35 37 34 30 24 18 17 20 20 23 26 30 32 32 33 33 32 32 32 34 32 33 36 42 47 46 45 43 46 58 50 45 62 70
44 48 35 34 30 26 25 26 29 31 31 35 34 39 32 19 21 23 20 21 25 31 34 34 34 32 31 31 32 32 32 35 42 49 54 55 55 54 52 49 61 65 53 74
50 40 35 32 35 34 30 30 26 32 37 34 42 40 26 22 22 23 23 25 25 28 29 29 29 28 26 26 31 30 32 39 47 54 60 62 64 64 63 61 52 64 73 65
39 40 38 38 40 36 46 29 32 38 52 75 34 59 27 28 25 24 26 26 29 26 24 24 25 25 25 27 28 32 36 40 47 58 64 69 71 73 69 65 64 64 67 78
55 50 50 46 41 32 49 38 49 52 71 63 47 76 31 23 26 27 28 26 26 25 25 28 28 27 27 28 32 36 43 47 53 60 66 70 75 76 74 70 68 66 63 69
48 47 45 39 39 37 46 46 56 74 89 88 55 61 38 27 24 28 26 26 27 28 29 29 26 28 29 30 38 53 56 56 57 61 65 66 69 71 76 74 62 63 67 72
45 53 46 43 53 48 50 50 90 94 93 86 33 48 34 23 27 29 30 27 28 30 32 35 38 36 35 39 56 60 61 62 60 65 68 64 63 66 73 80 79 75 68 69
78 78 56 49 50 52 61 47 88 76 87 78 38 60 30 28 28 27 26 27 30 33 36 38 38 40 48 55 57 61 64 62 66 68 71 76 76 73 74 79 85 84 80 80
59 61 54 48 47 46 49 63 42 59 35 76 52 33 31 30 33 28 30 32 34 36 38 36 38 47 55 58 64 64 71 68 71 80 81 82 84 81 80 79 83 86 75 85
44 52 50 55 48 47 51 37 61 70 79 72 55 37 66 40 37 29 34 36 36 36 37 38 42 58 62 68 74 76 80 78 81 84 84 84 79 82 82 78 80 81 82 85
47 39 58 56 63 55 55 52 46 61 76 88 76 49 26 37 37 32 33 34 36 39 39 41 49 62 64 72 78 79 86 87 83 80 84 88 89 92 89 86 86 90 90 86
50 58 62 54 43 38 44 41 42 84 71 82 87 80 26 32 33 34 34 35 36 36 38 41 60 64 68 77 82 88 90 88 84 85 87 88 90 97 91 90 97 96 95 89
60 59 73 52 52 45 48 42 43 43 49 66 88 53 28 28 32 34 39 37 34 36 40 43 68 74 72 79 87 93 92 91 89 87 95 98 94 99 93 98 98 100 94 89
64 56 58 67 52 46 50 42 41 49 81 65 56 48 33 29 33 38 35 38 39 41 41 45 71 77 78 84 94 95 93 92 94 99 100 99 100 98 99 100 99 100 99 98
62 75 61 56 49 50 52 53 50 58 58 66 52 49 41 36 37 32 38 40 42 43 44 48 79 80 82 90 95 95 93 95 100 100 100 100 99 99 100 100 100 99 100 100
94 98 82 80 62 62 69 57 55 52 49 47 48 50 36 32 35 37 42 44 48 48 46 49 82 82 89 95 97 97 96 99 100 100 100 100 99 99 100 99 100 100 100 100
90 96 97 93 61 62 77 59 54 53 47 47 58 44 34 38 40 40 41 47 52 50 49 58 88 88 94 99 100 99 99 99 100 100 100 100 100 100 100 99 99 100 100 98
88 83 97 95 72 93 43 30 32 39 37 37 36 34 39 40 36 38 42 42 48 50 50 72 89 94 98 98 96 96 97 99 100 99 100 100 99 100 100 99 100 99 100 99
83 84 97 95 92 66 48 38 39 40 43 34 37 35 36 38 36 43 38 39 42 48 54 87 92 97 98 97 96 98 99 99 100 100 100 100 98 99 100 94 91 95 98 95
55 74 88 96 94 69 54 39 31 34 54 39 40 41 40 38 48 46 48 42 40 37 52 85 94 96 95 98 95 99 99 99 100 100 100 100 98 98 98 94 93 86 88 95
85 82 86 85 88 65 31 37 30 58 61 39 36 32 31 40 46 40 34 36 32 34 54 87 93 97 97 98 96 99 99 100 100 100 100 100 100 99 99 99 98 92 92 95
55 79 80 75 85 86 40 37 43 44 38 34 30 29 37 40 38 32 34 37 39 43 48 88 93 97 97 97 97 99 99 100 100 100 100 100 100 100 100 98 100 97 85 83
50 40 44 44 54 38 30 40 37 29 29 30 31 32 30 29 27 32 38 38 44 44 49 87 93 97 98 96 97 98 100 99 100 99 99 100 100 100 100 100 100 100 94 86
36 28 34 36 36 35 29 26 26 24 24 26 20 20 20 23 28 38 37 40 48 46 47 86 94 98 99 98 96 95 97 97 99 99 100 100 100 100 100 99 100 84 83 84
44 42 45 43 35 29 23 23 22 22 18 17 18 18 22 25 33 33 37 41 45 47 47 86 93 96 97 98 95 92 95 95 99 99 100 95 95 91 90 82 77 71 73 67
37 39 44 45 31 30 26 22 21 22 22 21 23 24 23 25 31 33 36 39 38 46 48 88 94 97 98 99 96 92 96 94 97 92 93 73 69 69 70 70 73 69 63 58

GFSCGP_925_rhum_207.txt.gz
RH
46 61 65 49 43 33 23 23 20 41 36 31 35 38 33 26 20 27 29 33 34 37 39 35 34 34 33 32 32 34 34 31 32 33 42 51 54 51 50 46 48 63 61 57
52 48 37 38 41 34 24 24 26 34 36 29 37 42 39 32 24 25 28 32 40 41 41 38 35 34 33 33 33 35 33 34 35 41 44 54 60 60 60 58 52 48 54 69
55 41 35 33 33 34 30 31 29 34 39 37 41 30 26 25 26 30 31 33 36 38 33 30 31 30 28 27 28 35 34 36 40 44 50 60 65 67 68 68 66 65 66 58
44 41 39 37 40 44 39 33 38 43 56 54 36 36 32 29 29 31 34 37 33 30 28 27 26 26 28 29 30 31 42 52 53 55 56 62 69 74 74 75 72 69 64 65
47 52 48 47 43 37 52 55 58 62 79 50 40 64 36 34 32 34 36 33 30 29 30 33 32 32 31 32 36 54 55 59 60 60 59 62 68 66 63 65 69 66 61 64
53 47 52 46 50 41 49 54 67 83 88 65 30 43 45 34 32 36 32 31 33 34 34 35 32 32 38 45 53 54 55 57 62 61 62 67 70 70 65 59 62 69 69 63
51 55 49 44 60 51 50 60 88 88 84 54 47 58 43 32 32 35 35 34 35 36 38 39 41 42 50 56 58 61 63 63 67 64 68 70 71 76 78 74 72 74 76 74
75 62 62 51 55 58 66 59 81 47 95 80 43 48 33 33 35 35 35 36 36 36 40 38 39 44 62 62 64 66 72 78 73 74 74 79 79 82 84 83 78 80 84 84
73 64 55 51 54 48 61 67 48 61 52 69 60 43 34 34 37 36 37 36 35 36 38 36 38 62 64 66 69 75 77 80 82 82 76 80 82 88 86 79 85 84 82 84
49 51 56 58 50 48 50 42 54 73 74 80 71 46 66 46 43 41 40 39 37 38 37 41 47 66 65 69 73 78 84 88 87 83 87 88 84 84 82 83 92 84 80 80
52 50 59 61 71 68 61 58 53 66 80 85 80 53 36 37 43 42 38 38 37 37 42 44 65 68 68 72 78 85 92 89 89 88 85 88 87 89 87 96 95 90 85 88
54 65 77 65 46 42 46 45 47 74 62 87 86 64 34 38 43 41 41 37 33 38 44 48 72 73 73 78 83 92 88 92 91 91 92 93 98 92 98 99 88 90 96 100
72 68 82 61 52 46 48 47 46 52 67 74 87 66 31 34 42 41 40 38 43 45 48 51 71 82 81 83 89 93 92 93 94 96 100 100 97 100 100 99 100 100 100 100
69 73 65 74 55 48 55 45 45 52 84 63 71 50 35 32 37 36 42 44 46 49 50 54 76 86 86 88 93 93 94 95 96 99 100 100 100 100 100 99 99 99 99 99
83 88 70 66 62 55 55 55 52 59 59 71 53 50 43 40 43 42 46 47 50 53 53 55 80 91 88 91 95 95 96 95 98 100 100 100 100 100 99 98 99 100 100 100
82 92 97 93 70 64 69 65 61 61 58 56 53 56 40 37 43 45 49 50 53 54 54 55 88 89 82 96 98 98 96 97 98 100 100 100 100 99 99 98 99 99 100 100
90 92 97 92 72 68 86 70 61 55 51 50 61 49 41 44 46 45 52 47 48 52 54 57 84 88 92 98 96 98 98 95 98 100 100 100 100 98 99 99 99 99 100 99
83 88 98 97 82 93 49 41 45 52 48 46 40 40 42 46 48 49 42 41 46 48 52 66 90 92 97 94 95 95 96 98 99 99 100 99 99 96 96 99 99 100 100 100
79 79 97 97 96 75 52 42 40 42 45 42 39 42 42 44 50 50 44 45 41 43 49 80 89 93 99 93 96 95 98 99 99 99 100 100 99 95 92 95 98 100 100 99
84 83 97 98 94 92 51 40 32 34 56 42 39 39 41 41 56 52 43 38 40 36 40 77 87 92 94 93 97 94 99 100 100 100 100 100 100 96 95 94 97 100 100 100
87 88 93 93 91 83 49 45 31 49 54 39 36 33 34 44 50 43 35 37 35 39 44 82 90 93 96 94 96 96 99 100 99 100 99 99 99 98 97 94 96 99 99 100
81 89 94 87 88 88 44 44 49 47 35 34 32 35 46 39 32 29 35 40 40 46 48 78 91 96 97 95 96 96 99 99 100 100 100 100 100 100 100 96 96 94 99 96
51 45 50 65 74 37 34 39 33 27 28 27 30 31 22 21 22 27 40 39 39 41 48 65 92 96 98 96 95 96 98 98 100 99 100 100 100 100 100 100 98 92 87 90
48 42 48 47 38 37 32 28 27 28 28 24 17 17 18 20 25 32 41 40 39 39 47 56 93 97 98 98 95 94 94 97 100 99 100 100 100 100 100 99 95 81 78 84
49 47 51 42 34 28 23 23 26 25 23 18 18 18 20 23 27 31 34 36 33 40 41 52 88 95 96 99 95 93 94 96 100 100 99 100 100 99 95 85 80 77 71 57
48 46 50 48 30 31 30 26 26 29 28 28 28 26 27 26 30 31 34 30 34 42 37 50 77 95 97 99 97 95 95 97 99 99 87 79 87 84 83 82 83 75 65 59

GFSCGP_925_rhum_210.txt.gz
RH
50 64 63 40 48 29 32 28 23 38 36 32 35 37 32 30 27 31 34 36 40 41 40 37 35 34 32 33 34 37 40 36 36 37 41 44 48 53 53 55 54 50 47 58
53 54 36 40 44 42 32 27 26 36 37 29 36 39 37 36 30 28 32 38 43 48 48 43 37 37 38 35 30 31 37 35 41 50 53 52 57 61 64 64 64 63 62 58
50 35 39 39 35 38 33 32 30 29 40 37 38 28 28 29 32 34 36 41 45 50 42 39 35 32 29 30 34 36 42 51 55 58 59 58 60 64 68 68 70 69 65 65
46 44 42 38 39 44 36 40 34 44 46 48 38 38 22 30 34 40 43 39 37 32 30 32 32 32 33 34 37 49 52 53 54 61 63 63 66 72 67 68 66 67 65 61
44 54 49 47 42 39 47 57 61 61 76 49 40 56 21 37 37 41 38 36 36 37 39 38 36 35 39 45 52 56 56 55 58 60 63 63 68 71 71 69 60 60 62 63
52 48 54 48 51 45 53 54 68 81 76 57 29 36 20 43 38 43 36 38 40 39 38 38 35 36 46 56 57 57 58 60 64 69 69 71 75 77 80 78 79 71 70 68
55 54 50 46 56 51 48 51 76 64 75 52 48 53 27 30 32 35 40 43 42 41 41 38 37 44 58 62 62 63 67 72 71 73 75 78 77 81 84 84 90 89 85 79
78 55 60 49 52 57 63 49 72 42 78 70 49 61 36 38 39 38 40 42 41 42 40 37 36 49 65 65 68 70 74 81 83 79 82 78 85 85 87 92 81 80 82 86
76 60 56 54 54 49 57 74 51 63 59 73 61 44 38 36 42 43 43 41 41 41 40 36 40 66 66 68 73 75 81 87 91 86 82 83 86 83 90 83 80 75 76 80
53 67 56 56 52 51 51 45 61 72 70 78 72 53 66 49 50 48 46 44 39 38 37 42 50 69 70 74 78 78 88 85 79 82 84 87 84 85 88 92 89 86 92 93
54 58 55 62 72 68 63 62 57 68 74 79 80 56 46 42 51 50 46 43 41 40 43 48 64 73 75 78 81 87 90 90 86 84 90 95 97 98 98 93 97 99 90 88
62 70 79 66 52 53 51 53 53 81 65 87 83 52 41 38 48 46 47 41 43 42 47 51 73 79 81 84 82 89 90 89 88 94 98 100 100 98 99 100 99 99 100 99
67 74 88 65 55 47 50 49 46 52 69 78 79 50 41 45 46 45 45 46 49 47 49 55 66 84 88 88 87 90 92 92 92 94 98 100 100 100 98 94 95 98 95 97
71 80 70 77 59 56 58 50 48 53 83 64 70 49 41 47 46 41 44 47 48 49 52 56 67 88 90 85 91 93 94 90 92 94 99 99 99 99 97 94 97 97 100 100
79 90 80 74 74 67 66 66 59 62 59 64 50 56 41 39 42 44 50 50 47 49 52 57 70 90 80 87 86 91 94 90 90 96 99 99 100 99 96 93 96 99 100 100
83 97 89 96 79 76 80 70 64 61 57 60 57 58 40 38 48 51 54 51 48 49 51 56 66 87 82 94 95 91 96 93 92 97 99 100 100 97 96 97 99 100 99 100
89 87 93 96 76 78 83 72 70 60 53 51 59 50 45 44 50 55 56 47 46 47 48 56 66 90 93 95 93 95 96 95 96 98 99 100 99 97 97 98 99 99 100 100
89 91 92 97 81 99 50 50 57 62 56 49 53 47 45 46 56 51 43 48 44 44 45 55 77 88 93 96 92 94 96 99 99 98 99 99 99 95 95 97 98 99 100 100
86 87 95 99 97 75 56 46 43 46 47 46 42 46 50 51 53 50 44 41 39 43 48 50 78 90 97 94 93 96 98 99 99 99 100 99 99 94 93 98 100 100 100 99
81 84 90 97 97 91 54 51 45 38 59 39 39 40 49 50 61 58 39 35 39 40 45 55 80 90 96 95 93 96 100 99 99 100 100 100 98 94 95 99 99 100 99 100
99 97 90 92 94 85 56 48 44 53 56 39 34 35 36 53 51 42 32 36 37 37 42 52 78 92 95 94 94 97 99 99 99 100 100 100 100 96 96 98 98 98 100 100
87 95 94 89 95 88 43 43 49 50 36 32 31 40 46 34 25 23 29 39 39 39 34 45 69 90 95 95 96 96 98 99 99 100 99 99 99 99 97 96 99 100 97 96
60 59 63 79 74 41 35 34 33 31 33 32 29 27 20 18 20 24 32 40 37 33 30 39 56 88 96 97 98 94 94 99 99 99 100 100 99 100 99 97 95 97 88 86
48 44 50 42 38 36 28 23 20 21 29 30 29 21 18 19 22 28 36 37 35 28 31 40 49 84 97 98 99 94 92 99 99 99 100 99 99 100 100 99 85 79 76 78
47 51 53 52 37 34 28 24 26 25 25 30 27 25 23 24 26 26 31 32 28 27 31 39 46 58 83 97 99 95 93 98 99 99 100 100 100 99 98 93 79 69 69 64
55 45 52 46 32 35 35 31 30 34 33 31 33 34 32 31 33 31 33 28 29 32 36 40 34 34 54 99 99 96 95 98 98 99 98 98 98 92 84 82 81 74 63 58